Regional Weather Roundup
Issued by NWS

Home | Current Version | Previous Version | Text Only | Print | Product List | Glossary Off
Versions: 1 2 3 4 5 6 7 8 9 10 11 12 13 14 15 16 17 18 19 20 21 22 23 24 25 26 27 28 29 30 31 32 33 34 35 36 37 38 39 40 41 42 43 44 45 46 47 48 49 50

197
ASUS43 KLOT 091803
RWRIL

ILLINOIS REGIONAL WEATHER ROUNDUP
NATIONAL WEATHER SERVICE CHICAGO/ROMEOVILLE IL
1200 PM CST FRI DEC 09 2016

NOTE: "FAIR" INDICATES FEW OR NO CLOUDS BELOW 12,000 FEET WITH NO
SIGNIFICANT WEATHER AND/OR OBSTRUCTIONS TO VISIBILITY.

* THESE STATIONS ARE NOT UNDER NWS QUALITY CONTROL. THEY ALSO MAY NOT
  REPORT WEATHER SUCH AS PRECIPITATION OR FOG.

ILZ001-002-007-009-015-016-024-091900-
NORTHWEST ILLINOIS

CITY           SKY/WX    TMP DP  RH WIND       PRES   REMARKS
MOLINE         SUNNY     23  13  65 W8        30.57F WCI  14
6HR MIN TEMP:  18; 6HR MAX TEMP:  24;

STERLING*      MOSUNNY   24  17  74 W8        30.56F WCI  15
$$

ILZ003-004-008-010-011-017-018-091900-
NORTH CENTRAL ILLINOIS

CITY           SKY/WX    TMP DP  RH WIND       PRES   REMARKS
ROCKFORD       CLOUDY    24  13  62 W9        30.54F WCI  14
6HR MIN TEMP:  21; 6HR MAX TEMP:  24; 6HR PCP: TRACE;

FREEPORT*      CLOUDY    22  13  67 W9        30.55F WCI  11
ROCHELLE*      PTSUNNY   24  13  64 W12       30.54F WCI  13
$$

ILZ005-006-012>014-019>023-091900-
NORTHEAST ILLINOIS

CITY           SKY/WX    TMP DP  RH WIND       PRES   REMARKS
CHICAGO-OHARE  FLURRIES  25  14  63 NW12      30.51F WCI  14
6HR MIN TEMP:  22; 6HR MAX TEMP:  25; 6HR PCP: TRACE;

CHICAGO-MIDWAY FLURRIES  26  13  57 W12       30.52F WCI  16
6HR MIN TEMP:  23; 6HR MAX TEMP:  26; 6HR PCP: TRACE;

AURORA         MOSUNNY   25  14  63 W15       30.53F WCI  13
6HR MIN TEMP:  22; 6HR MAX TEMP:  25;

LANSING*       CLOUDY    25  17  69 W8        30.52S WCI  17
WAUKEGAN       CLOUDY    25  12  58 NW6       30.48F WCI  18
6HR MIN TEMP:  21; 6HR MAX TEMP:  25;

DUPAGE AIRPORT CLOUDY    24  13  62 W14       30.51F WCI  12
6HR MIN TEMP:  21; 6HR MAX TEMP:  25; 6HR PCP: TRACE;

KANKAKEE*      PTSUNNY   27  18  69 W13       30.54F WCI  16
WHEELING       CLOUDY    25  12  58 NW9       30.52F WCI  15
6HR MIN TEMP:  22; 6HR MAX TEMP:  25; 6HR PCP: TRACE;

MORRIS*        CLOUDY    25  13  62 NW9       30.54F WCI  15
NORTHERLY ISL    N/A     26  17  68 W8          N/A  WCI  18
$$

LMZ740>746-091900-
SOUTHERN LAKE MICHIGAN

STATION/POSITION SKY/WX   TEMP    WIND        PRES    VSBY  WAVE
                          AIR SEA DIR/SP/G                  HT/PER
                          (F)     (DEG/KT/KT) (MB)    (MI)  (FT/S)
HARRISON CRIB              26     280/ 12/ 16   N/A
BURNHAM HARBOR             26     300/  8/ 12   N/A
CALUMET HARBOR             26     280/  6/ 10 1032.6F
BURNS HARBOR               27     280/  8/ 13 1033.2F
$$

ILZ025>027-034>036-040-047-049-050-058-095>099-091900-
WEST-CENTRAL ILLINOIS

CITY           SKY/WX    TMP DP  RH WIND       PRES   REMARKS
QUINCY         CLOUDY    21  13  71 W7        30.61F WCI  12
GALESBURG*     MOSUNNY   22  14  71 W8        30.58F WCI  12
MACOMB*        CLOUDY    22  13  70 NW7       30.61F WCI  13
JACKSONVILLE*  CLOUDY    24  13  64 NW7       30.60F WCI  15
PITTSFIELD*    CLOUDY    22  14  70 W7        30.62S WCI  14
$$

ILZ028>032-037-038-041>044-048-051>054-059>061-091900-
CENTRAL ILLINOIS

CITY           SKY/WX    TMP DP  RH WIND       PRES   REMARKS
PONTIAC        CLOUDY    26  17  68 NW9       30.55F WCI  17
BLOOMINGTON    FLURRIES  25  14  63 W9        30.54F WCI  15
DECATUR        CLOUDY    24  13  62 NW8       30.57F WCI  15
PEORIA         CLOUDY    24  12  60 NW8       30.58F WCI  15
6HR MIN TEMP:  20; 6HR MAX TEMP:  27;

LACON*         PTSUNNY   26  15  61 W7        30.56F WCI  18
LINCOLN*       CLOUDY    25  14  63 NW6       30.58F WCI  18
SPRINGFIELD    CLOUDY    24  12  60 VRB6      30.60F WCI  17
6HR MIN TEMP:  23; 6HR MAX TEMP:  25; 6HR PCP: TRACE;

TAYLORVILLE    CLOUDY    24  15  68 CALM      30.59F
6HR MIN TEMP:  21; 6HR MAX TEMP:  24;

$$

ILZ033-039-045-046-055>057-062-063-091900-
EAST-CENTRAL ILLINOIS

CITY           SKY/WX    TMP DP  RH WIND       PRES   REMARKS
CHAMPAIGN      FLURRIES  26  12  55 W7        30.55F WCI  18
RANTOUL*       CLOUDY    27  17  66 W8        30.54F WCI  19
MATTOON        CLOUDY    25  15  66 NW5       30.56F WCI  19
PARIS*         CLOUDY    26  15  64 NW7       30.57F WCI  18
$$

ILZ079-100>102-091900-
SOUTHWEST ILLINOIS

CITY           SKY/WX    TMP DP  RH WIND       PRES   REMARKS
ALTON          PTSUNNY   27  14  59 NW7       30.61F WCI  19
BELLEVILLE     MOSUNNY   29  13  51 W7        30.62F WCI  22
CAHOKIA*       MOSUNNY   27  11  51 NW6       30.64F WCI  20
SPARTA*        MOSUNNY   28  15  59 W6        30.64F WCI  21
$$

ILZ064>066-069>071-074>076-080>082-084>086-088>090-092>094-091900-
SOUTH-CENTRAL ILLINOIS

CITY           SKY/WX    TMP DP  RH WIND       PRES   REMARKS
CARBONDALE     SUNNY     28  15  58 NW6       30.63F WCI  22
6HR MIN TEMP:  18; 6HR MAX TEMP:  29;

CAIRO*         SUNNY     29  16  58 W7        30.64F WCI  22
EFFINGHAM*     CLOUDY    25  17  70 W3        30.61S
MARION         MOSUNNY   28  14  54 W3        30.63F
CENTRALIA*     PTSUNNY   28  15  59 W6        30.61S WCI  21
SALEM*         CLOUDY    29  14  53 W7        30.60F WCI  22
METROPOLIS*    SUNNY     30  14  50 CALM      30.64F
$$

ILZ067-068-072-073-078-083-087-091-091900-
SOUTHEAST ILLINOIS

CITY           SKY/WX    TMP DP  RH WIND       PRES   REMARKS
LAWRENCEVILLE  CLOUDY    26  14  60 W5        30.60F WCI  20
FLORA*         CLOUDY    29  15  56 W7        30.61F WCI  22
FAIRFIELD*     PTSUNNY   27  15  60 CALM      30.60S
HARRISBURG*    PTSUNNY   30  17  58 W8G16     30.63F WCI  22
ROBINSON*      FLURRIES  25  14  63 W5        30.60F WCI  19
CARMI*         MOSUNNY   28  15  60 W3        30.61S
$$

ABBREVIATIONS USED IN REMARKS
   TC - TEMPERATURE IN CELSIUS
  WCI - WIND CHILL INDEX
   HX - HEAT INDEX
  VSB - VISIBILITY
$$





USA.gov is the U.S. government's official web portal to all federal, state and local government web resources and services.